Regional Weather Roundup
Issued by NWS

Home | Current Version | Previous Version | Text Only | Print | Product List | Glossary Off
Versions: 1 2 3 4 5 6 7 8 9 10 11 12 13 14 15 16 17 18 19 20 21 22 23 24 25 26 27 28 29 30 31 32 33 34 35 36 37 38 39 40 41 42 43 44 45 46 47 48 49 50

000
ASUS43 KFSD 210502
RWRSD

WEATHER ROUNDUP FOR SOUTH DAKOTA
NATIONAL WEATHER SERVICE SIOUX FALLS SD
1100 PM CST SAT DEC 20 2014

NOTE: "FAIR" INDICATES FEW OR NO CLOUDS BELOW 12,000 FEET WITH NO
SIGNIFICANT WEATHER AND/OR OBSTRUCTIONS TO VISIBILITY.


SDZ001>005-009-010-012>017-210600-
NORTHWEST AND NORTH CENTRAL SOUTH DAKOTA

CITY           SKY/WX    TMP DP  RH WIND       PRES   REMARKS
BUFFALO          N/A     30  23  75 E5        29.69F WCI  25
FAITH            N/A     38  24  57 S8        29.79F
MOBRIDGE       CLOUDY    27  24  89 SE9       29.80F WCI  18
$$

SDZ012>016-024>037-041>051-057-063-072>074-210600-
SOUTHWEST AND SOUTH CENTRAL SOUTH DAKOTA

CITY           SKY/WX    TMP DP  RH WIND       PRES   REMARKS
RAPID CTY ARPT CLOUDY    33  26  75 CALM      29.79F
PIERRE         CLOUDY    23  20  88 CALM      29.84F
CUSTER         CLOUDY    31  23  72 SW5       29.79F WCI  26
ELLSWORTH AFB  CLOUDY    33  26  73 SW5       29.78F WCI  29
PHILIP         CLOUDY    29  24  82 CALM      29.83F
PINE RIDGE     CLOUDY    26  23  88 CALM      29.84F
WINNER         CLOUDY    36  27  69 SW7       29.87F
$$

SDZ004>011-016>023-039-040-210600-
NORTHEAST SOUTH DAKOTA

CITY           SKY/WX    TMP DP  RH WIND       PRES   REMARKS
ABERDEEN       CLOUDY    30  27  88 S16       29.89F WCI  19
WATERTOWN      CLOUDY    29  27  92 S16       29.91F FOG     WCI  17
SISSETON         N/A     31  30  96 S10       29.91S WCI  22
$$

SDZ017-020-022-023-036>040-048>070-210600-
SOUTHEAST SOUTH DAKOTA

CITY           SKY/WX    TMP DP  RH WIND       PRES   REMARKS
SIOUX FALLS    FOG       30  30 100 S10       29.97F VSB 1/2 WCI  21
HURON          CLOUDY    30  29  96 S13       29.92F FOG     WCI  20
MITCHELL       CLOUDY    32  30  92 S12       29.94F WCI  23
YANKTON        CLOUDY    32  28  86 SE8       29.98S WCI  25
$$

ABBREVIATIONS USED IN REMARKS
   TC - TEMPERATURE IN CELSIUS
  WCI - WIND CHILL INDEX
   HX - HEAT INDEX
  VSB - VISIBILITY




USA.gov is the U.S. government's official web portal to all federal, state and local government web resources and services.